Temp
-10 -11 -10 -10 -10 -10 -10 -11 -11 -11 -12 -11 -12 -12 -12 -11 -11 -11 -11 -11 -11 -11 -11 -11 -11 -11 -12 -11 -11 -11 -11 -11 -10 -10 -10 -10 -11 -11 -12 -11 -11 -11 -12
-10 -10 -10 -10 -10 -10 -10 -10 -10 -11 -12 -12 -12 -13 -12 -12 -11 -12 -12 -12 -12 -12 -12 -12 -12 -12 -12 -12 -11 -12 -12 -11 -11 -11 -11 -11 -11 -11 -12 -12 -12 -12 -12
-10 -10 -11 -11 -10 -10 -10 -11 -11 -11 -12 -12 -12 -12 -12 -12 -12 -12 -12 -12 -12 -12 -12 -12 -12 -12 -12 -12 -12 -12 -12 -12 -12 -11 -11 -12 -12 -12 -12 -12 -12 -13 -13
-10 -11 -11 -11 -11 -10 -10 -11 -11 -12 -12 -12 -12 -12 -13 -12 -12 -12 -12 -12 -12 -12 -12 -12 -12 -12 -12 -12 -12 -12 -12 -12 -12 -12 -12 -12 -12 -12 -12 -12 -12 -13 -13
-11 -11 -11 -11 -11 -11 -11 -11 -11 -11 -11 -12 -12 -12 -13 -13 -13 -13 -12 -12 -12 -12 -13 -12 -12 -13 -12 -12 -12 -12 -12 -12 -12 -12 -12 -12 -12 -12 -12 -12 -12 -13 -13
-11 -11 -11 -11 -11 -11 -11 -11 -11 -11 -11 -12 -12 -12 -14 -14 -15 -14 -13 -12 -12 -13 -13 -13 -12 -12 -13 -13 -12 -12 -13 -13 -12 -12 -12 -12 -13 -13 -12 -12 -12 -12 -12
-10 -11 -11 -11 -11 -11 -11 -12 -11 -11 -12 -12 -12 -13 -16 -15 -14 -13 -13 -13 -13 -12 -12 -12 -12 -12 -12 -13 -12 -12 -13 -13 -13 -13 -13 -13 -13 -13 -13 -13 -13 -13 -13
-11 -11 -11 -11 -11 -11 -11 -11 -11 -12 -12 -12 -13 -15 -15 -14 -13 -13 -13 -12 -12 -12 -12 -12 -12 -13 -13 -13 -13 -12 -13 -13 -13 -13 -14 -14 -14 -14 -13 -13 -14 -13 -13
-10 -10 -11 -11 -11 -11 -11 -11 -12 -12 -12 -15 -15 -14 -14 -13 -13 -12 -12 -12 -12 -12 -13 -13 -13 -13 -13 -14 -14 -13 -13 -14 -14 -14 -14 -14 -14 -14 -13 -14 -14 -15 -14
-10 -10 -9 -10 -11 -11 -11 -12 -12 -13 -16 -15 -14 -14 -13 -13 -13 -13 -13 -13 -13 -13 -13 -13 -14 -13 -13 -13 -14 -14 -14 -14 -14 -14 -14 -14 -14 -14 -15 -15 -15 -15 -15
-11 -10 -10 -11 -11 -11 -12 -12 -14 -15 -16 -16 -15 -15 -14 -13 -13 -13 -13 -13 -13 -13 -13 -13 -13 -13 -14 -15 -15 -15 -14 -14 -14 -14 -15 -14 -15 -15 -15 -16 -16 -17 -17
-11 -11 -10 -11 -11 -11 -12 -14 -16 -17 -16 -15 -14 -14 -14 -14 -14 -14 -14 -13 -13 -13 -13 -13 -14 -14 -14 -14 -15 -15 -14 -15 -15 -15 -14 -14 -14 -15 -16 -16 -17 -17 -17
-11 -11 -11 -11 -13 -13 -15 -15 -16 -15 -14 -14 -13 -13 -13 -13 -13 -13 -13 -14 -14 -14 -13 -13 -14 -14 -14 -14 -14 -15 -15 -15 -16 -16 -16 -16 -16 -16 -16 -16 -16 -17 -17
-13 -13 -15 -14 -13 -14 -14 -14 -14 -14 -14 -14 -14 -14 -14 -14 -14 -14 -14 -14 -14 -14 -14 -14 -14 -14 -14 -14 -14 -14 -14 -14 -15 -15 -15 -15 -16 -17 -17 -17 -17 -17 -18
-13 -13 -13 -13 -14 -14 -14 -14 -13 -13 -14 -14 -14 -14 -14 -14 -14 -14 -14 -14 -14 -14 -14 -14 -14 -14 -15 -15 -15 -15 -15 -15 -15 -15 -16 -16 -16 -16 -17 -17 -17 -18 -18
-13 -13 -13 -13 -14 -14 -14 -14 -14 -14 -14 -14 -15 -15 -14 -14 -14 -14 -14 -14 -14 -15 -15 -15 -15 -15 -15 -16 -16 -16 -16 -16 -16 -16 -16 -16 -16 -16 -16 -17 -17 -17 -18
-14 -14 -13 -14 -14 -15 -15 -15 -15 -14 -15 -15 -15 -15 -15 -15 -15 -14 -14 -15 -15 -15 -15 -15 -16 -16 -16 -16 -17 -17 -17 -17 -17 -17 -17 -17 -17 -17 -18 -18 -17 -18 -18
-14 -14 -14 -14 -14 -14 -14 -14 -15 -15 -15 -15 -15 -15 -15 -15 -14 -15 -15 -15 -15 -16 -16 -16 -16 -17 -17 -17 -17 -18 -18 -18 -18 -18 -18 -19 -19 -19 -19 -19 -19 -19 -18
-15 -15 -15 -14 -14 -14 -14 -15 -15 -15 -15 -15 -15 -15 -14 -14 -15 -15 -15 -15 -16 -16 -16 -17 -17 -17 -17 -17 -18 -18 -18 -18 -18 -19 -19 -19 -19 -19 -19 -19 -19 -19 -19
-15 -15 -15 -15 -15 -15 -15 -15 -16 -15 -15 -15 -15 -15 -15 -15 -15 -15 -16 -16 -16 -17 -17 -17 -17 -17 -17 -18 -18 -18 -19 -19 -19 -19 -20 -20 -20 -20 -20 -19 -19 -19 -19
-15 -15 -15 -15 -15 -15 -16 -15 -15 -15 -15 -15 -15 -15 -15 -15 -15 -16 -16 -16 -17 -17 -17 -17 -17 -17 -18 -18 -19 -19 -19 -19 -20 -20 -20 -20 -20 -20 -20 -20 -20 -20 -19
-15 -15 -15 -15 -15 -15 -15 -15 -15 -15 -15 -15 -15 -15 -15 -16 -16 -16 -16 -17 -17 -17 -17 -17 -17 -18 -18 -18 -19 -19 -19 -20 -20 -20 -20 -20 -20 -21 -21 -21 -21 -21 -21
-15 -15 -15 -15 -15 -15 -15 -15 -15 -15 -15 -15 -15 -16 -16 -16 -16 -16 -17 -17 -17 -17 -18 -18 -18 -18 -19 -19 -19 -19 -19 -20 -20 -20 -20 -21 -21 -21 -22 -22 -22 -22 -22
-15 -15 -15 -16 -15 -15 -15 -15 -15 -15 -15 -16 -16 -16 -16 -16 -16 -17 -17 -17 -17 -17 -18 -18 -18 -19 -19 -19 -19 -20 -20 -20 -20 -20 -21 -21 -21 -21 -22 -22 -23 -23 -22
-15 -15 -15 -15 -15 -15 -15 -15 -15 -16 -16 -16 -16 -16 -16 -16 -16 -17 -17 -17 -17 -18 -18 -18 -19 -19 -19 -19 -20 -20 -20 -21 -21 -21 -22 -22 -22 -22 -23 -23 -23 -23 -22
-16 -16 -15 -15 -15 -15 -15 -15 -15 -15 -15 -15 -16 -16 -16 -16 -17 -17 -17 -18 -18 -19 -19 -19 -19 -19 -19 -20 -20 -20 -21 -21 -21 -21 -21 -21 -22 -23 -23 -23 -23 -23 -24
Height
5850 5849 5848 5847 5847 5847 5845 5846 5846 5847 5846 5846 5846 5847 5846 5846 5845 5844 5843 5843 5843 5843 5843 5843 5841 5840 5839 5838 5839 5838 5835 5833 5831 5829 5830 5829 5827 5826 5825 5824 5824 5823 5822
5842 5842 5842 5842 5843 5842 5842 5843 5844 5843 5842 5842 5843 5843 5843 5843 5843 5843 5843 5843 5843 5843 5842 5841 5840 5839 5838 5838 5838 5836 5834 5832 5830 5829 5828 5826 5826 5824 5822 5822 5822 5820 5819
5834 5834 5836 5836 5837 5836 5837 5838 5838 5839 5838 5839 5840 5840 5840 5841 5841 5841 5842 5843 5843 5842 5841 5840 5840 5839 5837 5835 5835 5834 5833 5831 5829 5827 5827 5825 5822 5821 5822 5820 5819 5817 5817
5828 5828 5829 5831 5833 5832 5833 5833 5833 5833 5834 5835 5837 5837 5837 5838 5839 5841 5841 5841 5841 5841 5840 5839 5837 5836 5835 5833 5833 5831 5831 5830 5828 5826 5824 5822 5821 5820 5817 5816 5815 5814 5813
5822 5822 5823 5826 5827 5826 5825 5826 5827 5828 5830 5832 5833 5833 5834 5835 5838 5839 5840 5841 5840 5840 5839 5837 5834 5832 5830 5829 5828 5827 5827 5826 5824 5822 5822 5820 5819 5816 5815 5814 5813 5810 5808
5815 5816 5818 5820 5819 5817 5818 5820 5821 5824 5825 5828 5829 5828 5830 5833 5835 5837 5837 5837 5837 5836 5834 5833 5831 5829 5827 5824 5822 5824 5822 5821 5819 5819 5816 5815 5814 5813 5811 5809 5808 5808 5805
5808 5808 5812 5812 5812 5809 5809 5810 5813 5817 5821 5824 5825 5825 5827 5831 5834 5835 5834 5834 5833 5831 5830 5829 5827 5824 5824 5822 5818 5818 5817 5817 5814 5813 5812 5810 5808 5807 5807 5804 5803 5801 5799
5800 5803 5807 5806 5806 5804 5803 5806 5809 5815 5818 5820 5821 5823 5828 5830 5831 5831 5831 5831 5829 5829 5827 5826 5823 5820 5817 5815 5814 5813 5811 5810 5809 5808 5807 5806 5805 5803 5800 5798 5797 5795 5793
5789 5793 5797 5795 5800 5798 5800 5805 5810 5813 5815 5818 5823 5826 5827 5829 5830 5829 5829 5827 5827 5825 5822 5821 5819 5815 5813 5811 5807 5807 5806 5804 5802 5800 5800 5799 5798 5796 5793 5790 5790 5789 5787
5798 5797 5792 5790 5796 5804 5801 5807 5809 5810 5816 5820 5822 5823 5824 5826 5826 5825 5824 5824 5824 5820 5818 5816 5813 5814 5811 5807 5807 5802 5799 5798 5796 5796 5795 5792 5790 5788 5786 5785 5781 5781 5780
5802 5795 5801 5802 5800 5799 5803 5806 5806 5810 5814 5817 5819 5822 5823 5824 5824 5823 5822 5822 5819 5816 5814 5812 5809 5808 5805 5802 5800 5797 5795 5793 5790 5789 5786 5784 5782 5779 5777 5777 5776 5775 5772
5800 5800 5794 5797 5801 5800 5800 5803 5808 5811 5812 5817 5820 5822 5823 5822 5819 5819 5818 5817 5814 5813 5809 5807 5804 5802 5798 5796 5795 5792 5789 5786 5783 5780 5777 5774 5772 5771 5769 5768 5766 5765 5764
5796 5798 5797 5799 5798 5799 5802 5806 5807 5812 5814 5817 5819 5819 5818 5816 5816 5816 5814 5812 5808 5807 5805 5803 5799 5796 5794 5791 5789 5786 5784 5781 5778 5775 5770 5767 5764 5761 5760 5759 5757 5755 5754
5792 5793 5797 5799 5800 5801 5805 5807 5810 5812 5814 5815 5815 5815 5814 5812 5812 5811 5810 5808 5805 5804 5802 5799 5795 5792 5789 5786 5783 5780 5777 5773 5769 5767 5764 5761 5758 5756 5753 5750 5748 5747 5745
5797 5798 5799 5802 5802 5803 5805 5808 5810 5813 5813 5812 5812 5812 5811 5810 5808 5806 5805 5805 5802 5800 5797 5793 5790 5787 5785 5781 5777 5773 5769 5765 5761 5757 5755 5752 5750 5746 5743 5741 5739 5737 5736
5799 5801 5801 5802 5802 5804 5807 5809 5809 5809 5810 5809 5810 5808 5807 5805 5805 5803 5802 5801 5798 5795 5791 5788 5785 5783 5779 5774 5770 5765 5760 5756 5751 5747 5743 5741 5737 5734 5732 5730 5729 5727 5726
5797 5799 5799 5801 5803 5806 5805 5807 5806 5807 5807 5806 5805 5804 5803 5803 5800 5800 5798 5798 5794 5790 5786 5783 5779 5776 5772 5767 5761 5755 5750 5746 5741 5736 5731 5727 5723 5720 5719 5717 5717 5715 5715
5798 5799 5799 5801 5804 5805 5804 5805 5805 5804 5805 5802 5800 5800 5799 5800 5799 5795 5794 5793 5790 5785 5780 5775 5772 5766 5762 5757 5752 5745 5739 5733 5728 5723 5718 5715 5711 5708 5706 5705 5703 5702 5702
5797 5798 5799 5799 5802 5803 5802 5801 5801 5799 5799 5798 5798 5798 5797 5798 5794 5791 5788 5786 5781 5775 5770 5765 5761 5756 5751 5746 5740 5734 5727 5722 5717 5711 5706 5703 5700 5696 5693 5692 5690 5688 5686
5796 5797 5798 5797 5798 5799 5799 5798 5792 5794 5797 5796 5798 5796 5794 5791 5788 5784 5780 5775 5769 5763 5758 5754 5750 5745 5740 5734 5728 5723 5716 5710 5706 5700 5695 5692 5689 5686 5682 5678 5675 5672 5669
5793 5794 5794 5794 5795 5795 5791 5791 5793 5794 5795 5794 5792 5789 5786 5783 5779 5774 5769 5762 5756 5753 5749 5745 5740 5734 5728 5723 5718 5712 5705 5699 5693 5688 5684 5679 5675 5669 5664 5660 5657 5653 5650
5792 5795 5794 5793 5790 5790 5791 5792 5792 5792 5790 5788 5785 5781 5776 5772 5767 5761 5755 5751 5747 5743 5737 5733 5727 5721 5716 5711 5706 5701 5697 5691 5684 5678 5672 5667 5660 5653 5647 5641 5636 5631 5627
5791 5792 5790 5790 5790 5790 5789 5788 5787 5786 5784 5781 5777 5773 5768 5764 5759 5754 5749 5744 5739 5733 5727 5722 5716 5711 5706 5700 5695 5689 5684 5679 5674 5667 5661 5654 5647 5639 5630 5621 5613 5606 5601
5788 5786 5787 5787 5787 5786 5785 5783 5782 5779 5776 5773 5769 5765 5760 5755 5751 5745 5740 5735 5730 5723 5717 5710 5705 5699 5693 5687 5681 5675 5670 5665 5660 5655 5647 5640 5631 5621 5611 5601 5592 5582 5573
5782 5781 5783 5783 5782 5781 5780 5779 5776 5773 5769 5766 5762 5757 5753 5749 5743 5738 5732 5725 5718 5712 5705 5698 5692 5686 5679 5674 5667 5661 5655 5649 5643 5637 5632 5624 5613 5600 5591 5580 5569 5556 5543
5779 5779 5778 5777 5776 5775 5774 5772 5769 5766 5763 5759 5753 5748 5742 5737 5731 5724 5717 5711 5704 5698 5692 5686 5680 5673 5667 5660 5654 5648 5641 5634 5626 5618 5612 5604 5595 5583 5572 5557 5542 5529 5515
Wind_Speed
28 33 34 37 42 43 41 38 35 37 36 38 30 27 29 26 22 18 15 14 13 11 11 10 12 14 15 14 13 13 12 13 13 12 13 12 10 11 13 16 18 19 19
33 34 36 38 38 36 39 31 34 34 37 38 34 29 28 22 21 19 17 15 12 11 10 11 14 15 17 17 15 13 14 13 14 13 12 10 10 12 10 11 13 14 16
34 37 35 32 33 27 30 30 32 35 36 39 32 32 24 23 21 21 17 14 12 12 12 13 15 17 19 17 15 15 13 15 16 15 13 12 13 13 15 15 16 16 18
38 39 39 37 31 37 38 36 37 37 38 37 33 32 28 21 20 21 17 15 13 15 14 15 17 20 21 20 18 18 18 16 16 13 13 14 15 16 17 18 20 21 21
39 40 41 37 36 36 35 39 39 38 38 37 32 34 28 17 18 20 16 16 18 15 15 17 18 19 18 20 19 20 19 19 17 13 11 12 13 14 17 19 23 24 25
45 43 39 38 37 34 36 37 37 39 41 36 38 36 20 15 15 18 20 21 16 15 17 19 21 22 22 21 22 20 15 17 18 18 18 17 16 18 19 19 21 24 24
41 37 30 36 32 31 35 42 41 40 37 34 37 18 6 9 14 19 19 16 16 19 21 22 25 27 28 27 28 27 23 17 18 22 22 22 23 26 27 26 26 25 24
34 36 35 33 29 27 41 46 45 38 36 31 17 10 10 14 16 14 13 15 19 23 24 27 30 31 31 30 30 31 29 28 26 23 21 22 25 28 30 31 31 29 26
36 30 37 38 23 34 37 32 30 28 19 10 9 8 9 9 9 10 15 17 22 25 27 28 28 28 27 28 23 29 26 23 24 23 23 25 31 38 35 34 34 30 27
32 26 36 40 22 28 28 23 17 9 16 11 10 6 6 6 12 13 18 20 20 21 25 27 22 26 29 27 19 23 25 27 27 27 29 33 40 38 34 35 33 34 31
22 38 17 36 40 28 19 14 12 17 15 12 9 8 9 12 15 20 19 19 20 20 20 20 22 25 26 25 26 26 29 32 34 34 35 38 39 39 40 38 33 34 32
27 28 28 27 23 15 12 18 17 14 12 8 6 9 12 13 15 16 13 14 19 22 21 23 23 26 28 29 31 32 34 34 36 39 43 45 44 42 41 41 40 38 35
18 32 28 16 8 11 18 17 16 10 5 5 8 10 4 6 9 15 20 23 22 23 22 23 23 24 26 30 31 30 30 29 31 34 37 40 42 43 42 41 40 39 37
12 16 14 15 10 14 12 11 9 7 8 6 5 8 8 13 14 16 17 18 15 14 16 18 21 24 27 30 32 33 34 36 37 37 39 41 41 43 44 44 43 39 39
14 16 17 16 15 13 11 8 6 5 3 6 7 8 13 15 16 11 10 14 16 19 23 26 28 30 31 32 34 36 37 39 40 40 40 41 42 45 45 46 46 45 42
13 13 12 13 12 9 6 4 0 4 5 6 8 12 15 12 8 10 14 19 23 25 27 28 29 31 32 34 35 37 39 41 43 45 46 46 45 43 44 46 47 46 46
9 8 8 7 6 4 3 2 4 6 7 9 12 16 11 9 12 15 20 23 25 27 28 30 32 34 36 37 38 40 42 43 45 47 49 49 48 47 44 43 45 46 45
9 8 6 4 5 5 5 4 6 8 11 15 16 12 9 14 17 19 23 26 29 30 32 34 37 39 40 40 41 44 47 47 48 50 49 47 47 47 47 46 45 44 45
5 4 3 4 7 7 8 8 10 12 15 16 12 11 14 19 22 25 28 33 35 37 38 40 41 44 47 46 45 47 49 51 51 50 47 46 46 47 50 50 51 53 54
4 5 8 9 9 10 14 14 14 14 13 11 12 16 19 23 27 31 34 37 39 41 43 46 48 51 52 50 49 49 51 52 53 50 47 47 49 51 54 57 59 62 64
7 10 13 11 14 15 17 13 10 10 12 14 18 22 26 29 32 37 39 42 44 47 50 52 52 53 53 52 52 51 53 54 51 48 49 52 55 59 63 65 67 69 70
9 9 8 10 16 16 12 10 12 15 17 21 25 29 32 36 39 42 45 48 50 53 54 56 57 56 56 54 53 53 54 50 46 47 51 55 59 61 62 65 70 73 76
10 13 6 13 12 11 11 12 16 19 23 27 30 33 37 39 42 46 49 52 54 55 56 58 58 57 54 53 53 55 53 48 49 52 54 58 61 65 70 75 79 83 87
11 12 11 15 10 10 14 17 21 25 29 32 35 38 41 44 47 49 52 54 57 58 59 59 58 55 54 54 56 54 52 54 57 58 63 67 70 75 79 79 79 84 90
15 14 12 9 12 14 17 22 26 30 34 37 40 43 46 48 50 52 55 58 58 59 59 58 56 55 56 57 54 53 55 57 60 64 67 71 77 80 80 79 85 91 93
14 15 11 14 16 19 22 27 32 36 39 42 45 48 51 52 55 57 59 59 59 60 59 57 57 58 59 57 56 56 58 62 66 69 69 72 76 77 74 82 88 89 84
Wind_Direction
276 278 278 273 280 273 262 269 276 283 286 290 288 287 296 293 280 261 236 232 236 250 267 286 293 296 300 298 295 305 306 296 295 299 299 299 287 277 278 282 282 280 280
276 272 274 275 284 282 278 275 279 283 284 289 285 280 287 282 269 243 228 231 242 261 275 287 295 305 305 303 301 305 303 295 291 293 298 299 295 296 286 289 291 294 294
271 269 274 279 289 275 260 277 284 284 279 282 273 281 277 275 257 234 226 239 258 268 275 291 301 307 306 301 300 299 302 306 293 288 293 297 298 301 302 300 296 292 291
271 269 272 266 268 274 282 281 281 277 277 275 271 278 280 267 249 234 232 236 258 268 281 292 302 308 310 305 302 298 301 310 301 282 287 294 297 299 298 294 291 284 283
267 264 270 273 279 277 271 274 274 279 276 272 269 273 271 258 239 231 234 250 255 270 286 293 295 297 302 302 298 295 292 290 299 283 277 288 298 300 300 300 293 284 281
266 265 271 265 270 276 272 272 268 274 274 264 264 267 240 231 223 223 231 242 257 275 282 283 289 295 294 297 293 296 305 286 284 284 286 298 308 313 313 307 302 298 288
257 259 260 259 267 271 267 253 261 268 275 265 263 248 194 195 210 221 236 252 265 274 278 290 301 302 299 296 294 290 291 290 291 290 282 286 298 303 311 309 308 297 290
248 253 254 253 253 259 247 245 257 267 247 241 247 140 175 207 221 234 252 266 278 290 297 295 299 306 309 302 292 291 292 295 288 286 286 296 303 308 305 303 304 299 292
223 243 245 241 246 258 243 239 231 230 223 141 127 184 205 220 238 261 273 286 284 292 297 300 306 311 314 302 308 297 297 302 295 287 282 291 302 304 301 301 299 295 292
195 195 188 199 226 245 218 196 205 196 119 136 167 185 219 228 257 281 277 281 295 302 302 308 308 309 305 308 301 311 312 312 304 286 284 291 299 299 299 295 295 294 292
242 198 255 259 236 220 219 218 144 122 116 137 163 196 211 236 245 255 273 294 304 320 325 312 306 304 304 296 298 292 296 294 292 283 283 288 294 298 297 292 292 293 291
232 232 219 182 225 226 166 119 115 129 138 148 211 241 252 273 288 295 302 310 307 302 311 306 307 294 300 299 297 295 305 301 294 291 291 292 294 294 294 294 293 292 285
228 241 230 227 108 116 91 96 102 117 154 203 231 241 309 314 310 295 297 301 308 313 317 309 308 309 304 300 301 300 298 297 294 291 292 294 295 294 293 292 291 291 289
346 1 87 128 145 96 104 116 139 153 195 219 272 294 311 321 315 303 300 302 313 319 314 317 315 313 313 313 310 307 306 308 308 306 301 297 292 289 288 288 287 285 285
131 133 133 134 127 129 122 136 159 191 240 299 306 280 312 311 310 311 317 318 325 320 321 321 319 316 312 311 311 310 306 303 302 302 300 297 293 289 285 282 281 281 280
141 141 136 124 113 112 133 140 307 336 305 301 297 311 307 317 316 317 318 325 325 322 319 318 315 311 310 309 310 307 307 306 306 304 304 303 299 291 283 281 278 274 274
130 126 114 101 90 100 45 274 298 316 316 313 312 316 310 305 316 322 323 319 315 310 312 314 313 311 311 310 310 313 310 309 306 306 307 305 300 295 288 280 275 274 272
127 118 117 87 31 359 343 283 325 311 318 316 315 311 300 311 311 312 309 308 307 309 312 315 313 316 313 312 311 311 312 310 309 308 306 302 298 294 291 289 284 278 273
67 78 24 358 344 344 342 321 318 315 310 300 311 293 299 301 305 304 305 306 309 312 313 313 314 312 313 312 311 309 309 309 309 306 302 298 296 295 294 292 289 286 283
355 17 353 333 346 340 330 320 331 317 304 304 296 291 297 302 304 306 307 311 313 316 317 314 313 312 311 312 308 307 308 308 307 304 299 299 298 297 294 292 290 288 286
341 348 337 334 332 331 332 333 334 319 310 303 297 300 306 306 309 310 314 316 318 317 314 312 311 310 312 310 308 308 310 309 306 304 303 303 301 300 299 297 296 293 290
331 339 319 324 328 327 326 322 315 312 309 305 306 308 311 313 315 317 318 317 315 313 312 311 312 312 311 309 307 307 308 306 303 302 303 303 302 301 301 301 301 297 293
324 335 320 318 317 314 310 307 309 310 307 307 309 310 311 313 315 314 314 313 312 311 310 311 311 310 308 307 306 307 306 303 299 298 299 303 302 300 300 301 300 298 297
333 306 316 309 312 308 295 303 306 306 307 309 309 310 312 313 311 311 310 308 306 308 309 309 309 309 308 307 309 307 303 302 301 303 304 306 306 303 302 301 301 301 301
315 307 310 312 312 304 296 298 300 305 305 306 307 309 308 307 306 305 303 305 308 308 309 309 308 308 307 307 306 303 303 305 307 307 306 309 311 307 304 303 304 304 305
305 296 310 320 314 309 304 300 300 300 303 305 305 306 306 306 306 306 308 309 310 310 309 308 307 306 306 304 301 300 301 304 305 304 305 308 311 307 304 306 309 309 303